Regional Weather Roundup
Issued by NWS Cleveland, OH

Home | Current Version | Previous Version | Text Only | Print | Product List | Glossary Off
Versions: 1 2 3 4 5 6 7 8 9 10 11 12 13 14 15 16 17 18 19 20 21 22 23 24 25 26 27 28 29 30 31 32 33 34 35 36 37 38 39 40 41 42 43 44 45 46 47 48 49 50

000
ASUS41 KCLE 212110
RWRCLE
OHIO REGIONAL WEATHER ROUNDUP
NATIONAL WEATHER SERVICE WILMINGTON, OH
400 PM EST WED FEB 21 2018

NOTE: "FAIR" INDICATES FEW OR NO CLOUDS BELOW 12,000 FEET WITH NO
SIGNIFICANT WEATHER AND/OR OBSTRUCTIONS TO VISIBILITY.

OHZ001>008-015>018-024>027-034-035-043-044-212200-
   NORTHWEST OHIO

CITY           SKY/WX    TMP DP  RH WIND       PRES   REMARKS
DEFIANCE       CLOUDY    39  34  82 N9        30.51R
FINDLAY        CLOUDY    41  35  79 N12       30.48R
TOLEDO EXPRESS CLOUDY    40  35  83 N8        30.51R
TOLEDO EXEC    PTSUNNY   41  33  73 NE9       30.53R
LIMA           LGT RAIN  39  37  92 N10       30.47R
$$

OHZ009>014-019>023-028>033-038-089-212200-
   NORTHEAST OHIO

CITY           SKY/WX    TMP DP  RH WIND       PRES   REMARKS
CLE-HOPKINS    CLOUDY    37  34  89 N13       30.52R
CLE-LAKEFRONT  LGT RAIN  35  33  92 N13       30.51R WCI  26
CUY CO. ARPT   DRIZZLE   36  34  93 N14       30.51R
LORAIN-ELYRIA  CLOUDY    36  30  79 NE16      30.51R
ASHTABULA      LGT RAIN  35  34  96 N12G18    30.49R WCI  27
AKRON-CANTON   CLOUDY    40  36  86 N12       30.44R
WOOSTER        CLOUDY    39  36  89 N13       30.46R
MANSFIELD      LGT RAIN  39  38  96 N12       30.45R
YOUNGSTOWN     CLOUDY    39  36  89 N12       30.43R
$$

OHZ042-051>053-060>062-070>072-077>081-212200-
  SOUTHWEST OHIO

CITY           SKY/WX    TMP DP  RH WIND       PRES   REMARKS
CINC-COVINGTON DRIZZLE   47  46  97 N12       30.40R
CINC-LUNKEN    LGT RAIN  48  45  89 N8        30.42R
HAMILTON       LGT RAIN  46  32  58 N8        30.44R
DAYTON         LGT RAIN  41  41 100 N14       30.44S
WRIGHT-PAT AFB NOT AVBL
DAYTON GENERAL LGT RAIN  45  41  86 N10       30.41R
WILMINGTON     CLOUDY    47  46  97 N9        30.41R
$$

OHZ036-037-039>041-045>050-054>059-063>069-073>076-082>088-212200-
  CENTRAL AND SOUTHEAST OHIO

CITY           SKY/WX    TMP DP  RH WIND       PRES   REMARKS
COLUMBUS       CLOUDY    48  44  86 N8        30.40R
OSU AIRPORT    CLOUDY    46  43  89 N13       30.42R
BOLTON FIELD   CLOUDY    46  43  87 N13       30.42R
RICKENBACK AFB CLOUDY    47  45  92 N9        30.40R
NEWARK         CLOUDY    48  42  80 NE6       30.40R
MARION         LGT RAIN  41  38  89 N16       30.46R
LANCASTER      CLOUDY    49  45  86 N10       30.41R
ZANESVILLE     CLOUDY    47  43  86 N8        30.41R
NEW PHILLY     CLOUDY    45  40  82 N9        30.43R
$$




USA.gov is the U.S. government's official web portal to all federal, state and local government web resources and services.